Miscellaneous Local Product
Issued by NWS Hastings, NE

Home | Current Version | Previous Version | Text Only | Print | Product List | Glossary On
Versions: 1 2 3 4 5 6 7 8 9 10 11 12 13 14 15 16 17 18 19 20 21 22 23 24 25 26 27 28 29 30 31 32 33 34 35 36 37 38 39 40 41 42 43 44 45 46 47 48 49 50
000
AXUS43 KGID 041502
MISGRI

GID CWA HOURLY WEATHER ROUNDUP
NATIONAL WEATHER SERVICE HASTINGS NE
900 AM CST WED MAR 04 2015

NOTE: "FAIR" INDICATES FEW OR NO CLOUDS BELOW 12,000 FEET WITH NO
SIGNIFICANT WEATHER AND/OR OBSTRUCTIONS TO VISIBILITY.

...SOUTH CENTRAL NEBRASKA...

CITY           SKY/WX    TMP DP  RH WIND       PRES   REMARKS
GRAND ISLAND   MOSUNNY   18   9  68 NW9       30.28R WCI   7
HASTINGS       SUNNY     16   9  74 NW10      30.27R WCI   4
KEARNEY        FAIR      16  10  79 NW6       30.27R WCI   7
ORD            SUNNY     20   6  55 W9        30.25R WCI   9
YORK           MOSUNNY   16   9  73 NW6       30.27R WCI   7
AURORA         MOSUNNY   18   9  68 NW9       30.28R WCI   7
LEXINGTON      MOSUNNY   12   8  83 NW9       30.26R WCI  -1
HOLDREGE       PTSUNNY   14  10  81 NW7       30.25R WCI   4
HEBRON         MOSUNNY   16  11  82 NW6       30.31R WCI   8

...NEBRASKA PANHANDLE...

CITY           SKY/WX    TMP DP  RH WIND       PRES   REMARKS
CHADRON        SUNNY      5  -4  66 W12       30.21R WCI -11
ALLIANCE       SUNNY     10   1  67 W12       30.16R WCI  -5
SCOTTSBLUFF    MOSUNNY   11   4  73 W7        30.18R WCI   0
SIDNEY         CLOUDY    11   3  70 W9        30.16R WCI  -2

...WESTERN AND NORTH CENTRAL NEBRASKA...

CITY           SKY/WX    TMP DP  RH WIND       PRES   REMARKS
VALENTINE      SUNNY     10   1  67 NW7       30.24R WCI  -1
AINSWORTH      SUNNY     13   1  59 NW14      30.23R WCI  -2
ONEILL         SUNNY     16   4  59 NW17G24   30.24R WCI   0
BROKEN BOW     MOSUNNY   17   8  67 W9        30.23R WCI   6
IMPERIAL         N/A     13   4  67 NW6       30.23R WCI   4
NORTH PLATTE   SUNNY     15  10  80 W9        30.24R WCI   3
MCCOOK         PTSUNNY   19  12  74 NW6       30.27R WCI  11

...EASTERN NEBRASKA...

CITY           SKY/WX    TMP DP  RH WIND       PRES   REMARKS
NORFOLK        SUNNY     18   3  52 W17       30.24R WCI   3
SO SIOUX CITY  MOSUNNY   19   7  59 VRB7      30.26R WCI  10
TEKAMAH        SUNNY     20   7  57 W7        30.29R WCI  11
COLUMBUS       SUNNY     19   3  49 W7        30.29R WCI  10
ALBION         SUNNY     21   0  40 NW14G20   30.25S WCI   8
OMAHA EPPLEY   MOSUNNY   21   7  54 NW5       30.31R WCI  15
OFFUTT AFB     MOSUNNY   20   8  62 VRB5      30.30R WCI  13
MILLARD        SUNNY     19   7  58 NW3       30.30R
LINCOLN        SUNNY     21  10  62 N3        30.32R
NEBRASKA CITY  MOSUNNY   19  12  74 NW6       30.30S WCI  11
BEATRICE       MOSUNNY   16  14  92 NW5       30.30R WCI   9
FALLS CITY     SUNNY     20  13  74 N7        30.31R WCI  11

...NORTHERN KANSAS...

CITY           SKY/WX    TMP DP  RH WIND       PRES   REMARKS
GOODLAND       CLOUDY    17  13  84 N9        30.22R WCI   6
HILL CITY      CLOUDY    21  13  71 N7        30.31R WCI  12
NORTON         SUNNY     18  10  73 W8        30.28R WCI   7
PHILLIPSBURG   SUNNY     21  14  73 W7        30.32R WCI  13
SMITH CENTER   SUNNY     16  10  79 NW6       30.32R WCI   7
BELOIT         SUNNY     25  10  54 N12       30.32R WCI  14
HAYS           CLOUDY    19   9  63 N13       30.30R WCI   7
RUSSELL        CLOUDY    20  14  77 N15       30.29R WCI   6
CONCORDIA      MOSUNNY   21  14  74 NW8       30.31R WCI  11
SALINA         CLOUDY    23  12  62 N15       30.32R WCI  10
TOPEKA         CLOUDY    22  12  65 N12       30.32R WCI  10



USA.gov is the U.S. government's official web portal to all federal, state and local government web resources and services.